Weather History for Sheridan, WY

Change the Weather History Date:

Monday, December 10, 2012

  Actual Average Record
Temperature  
Mean Temperature 24 °F 23 °F  
Max Temperature 32 °F 35 °F 70 °F (1981)
Min Temperature 15 °F 11 °F -21 °F (1932)
Degree Days  
Heating Degree Days 41 42  
Month to date heating degree days 336 410  
Since 1 July heating degree days 2020 2288  
Cooling Degree Days 0 0  
Month to date cooling degree days 0 0  
Year to date cooling degree days 664 419  
Moisture  
Dew Point 17 °F    
Average Humidity 72    
Maximum Humidity 88    
Minimum Humidity 55    
Precipitation  
Precipitation T in 0.02 in 0.28 in (1949)
Month to date precipitation 0.29 0.20  
Year to date precipitation 9.32 13.80  
Sea Level Pressure  
Sea Level Pressure 29.97 in    
Wind  
Wind Speed 12 mph (WNW)    
Max Wind Speed 31 mph    
Max Gust Speed 38 mph    
Visibility 8 miles    
Events Snow    
T = Trace of Precipitation, MM = Missing Value Source: NWS Daily Summary

Daily Weather History Graph

Daily Weather History Graph

Search for Another Location

Airport:

Trip Planner

Search our weather history database for the weather conditions in past years. The results will help you decide how hot, cold, wet, or windy it might be!

Date:

Astronomy

Dec. 10, 2012 Rise Set
Actual Time 7:34 AM MST 4:27 PM MST
Civil Twilight 7:01 AM MST 5:00 PM MST
Nautical Twilight 6:24 AM MST 5:37 PM MST
Astronomical Twilight 5:48 AM MST 6:12 PM MST
Moon 4:16 AM MST (12/10) 2:22 PM MST (12/10)
Length of Visible Light 9h 59m
Length of Day
8h 52m
Waning Crescent, 10% of the Moon is Illuminated
Dec 10
Waning Crescent
Dec 13
New
Dec 19
First Quarter
Dec 28
Full
Jan 4
Last Quarter

Hourly Weather History & Observations

Time (MST) Temp. Windchill Dew Point Humidity Pressure Visibility Wind Dir Wind Speed Gust Speed Precip Events Conditions
12:53 AM 15.1 °F 9.4 °F 9.0 °F 77% 30.02 in 10.0 mi SSE 3.5 mph - N/A   Overcast
1:53 AM 16.0 °F - 10.0 °F 77% 29.99 in 10.0 mi Calm Calm - N/A   Overcast
2:53 AM 19.9 °F 12.1 °F 12.0 °F 71% 29.97 in 10.0 mi SW 5.8 mph - N/A   Overcast
3:53 AM 21.9 °F 15.7 °F 12.9 °F 68% 29.97 in 10.0 mi SSW 4.6 mph - N/A   Overcast
4:53 AM 21.0 °F 16.2 °F 14.0 °F 74% 30.00 in 9.0 mi East 3.5 mph - 0.00 in Snow Light Snow
5:35 AM 23.0 °F 15.8 °F 17.6 °F 80% 29.80 in 2.0 mi SE 5.8 mph - 0.00 in Snow Light Snow
5:45 AM 23.0 °F 18.4 °F 19.4 °F 86% 29.80 in 3.0 mi SSE 3.5 mph - 0.00 in Snow Light Snow
5:53 AM 23.0 °F 17.0 °F 19.9 °F 88% 29.98 in 7.0 mi South 4.6 mph - 0.00 in Snow Light Snow
6:53 AM 25.0 °F 19.3 °F 21.9 °F 88% 29.98 in 10.0 mi South 4.6 mph - 0.00 in   Overcast
7:53 AM 27.0 °F 20.5 °F 19.9 °F 75% 29.98 in 10.0 mi NE 5.8 mph - N/A   Overcast
8:53 AM 30.9 °F 20.7 °F 18.0 °F 59% 29.97 in 10.0 mi North 13.8 mph 19.6 mph N/A   Overcast
9:49 AM 28.4 °F 14.1 °F 24.8 °F 86% 29.85 in 1.8 mi WNW 24.2 mph - 0.00 in Snow Light Snow
9:53 AM 28.9 °F 15.1 °F 24.1 °F 82% 30.01 in 1.5 mi NW 23.0 mph - 0.00 in Snow Light Snow
10:02 AM 28.4 °F 14.1 °F 24.8 °F 86% 29.85 in 1.2 mi NW 24.2 mph - 0.00 in Snow Light Snow
10:28 AM 28.4 °F 14.7 °F 24.8 °F 86% 29.87 in 3.0 mi NW 21.9 mph 27.6 mph 0.00 in Snow Light Snow
10:51 AM 28.4 °F 14.7 °F 23.0 °F 80% 29.87 in 10.0 mi NW 21.9 mph 31.1 mph 0.00 in   Mostly Cloudy
10:53 AM 28.9 °F 15.8 °F 23.0 °F 78% 30.02 in 10.0 mi NW 20.7 mph 31.1 mph 0.00 in   Mostly Cloudy
11:53 AM 30.0 °F 16.6 °F 21.9 °F 72% 30.01 in 10.0 mi NW 23.0 mph - N/A   Mostly Cloudy
12:53 PM 30.0 °F 16.0 °F 21.0 °F 69% 30.00 in 10.0 mi NW 25.3 mph 33.4 mph N/A   Overcast
1:53 PM 28.9 °F 15.1 °F 21.9 °F 75% 30.01 in 10.0 mi NW 23.0 mph - 0.00 in   Overcast
2:15 PM 28.4 °F 15.8 °F 23.0 °F 80% 29.88 in 4.0 mi NW 18.4 mph - 0.00 in Snow Light Snow
2:24 PM 28.4 °F 15.8 °F 23.0 °F 80% 29.87 in 7.0 mi NW 18.4 mph - 0.00 in Snow Light Snow
2:53 PM 28.0 °F 13.9 °F 21.0 °F 75% 30.01 in 10.0 mi NW 23.0 mph 29.9 mph 0.00 in   Partly Cloudy
3:53 PM 27.0 °F 15.2 °F 19.0 °F 72% 30.01 in 10.0 mi WNW 15.0 mph - N/A   Scattered Clouds
4:53 PM 25.0 °F 12.6 °F 14.0 °F 63% 30.03 in 10.0 mi WNW 15.0 mph - N/A   Clear
5:53 PM 23.0 °F 12.4 °F 12.9 °F 65% 30.03 in 10.0 mi West 10.4 mph - N/A   Clear
6:53 PM 26.1 °F 18.4 °F 12.9 °F 58% 30.01 in 10.0 mi West 6.9 mph - N/A   Overcast
7:53 PM 18.0 °F 7.7 °F 10.0 °F 71% 30.03 in 10.0 mi West 8.1 mph - N/A   Scattered Clouds
8:53 PM 25.0 °F 14.8 °F 10.9 °F 55% 30.00 in 10.0 mi WNW 10.4 mph - N/A   Overcast
9:53 PM 25.0 °F 14.8 °F 14.0 °F 63% 30.01 in 10.0 mi WNW 10.4 mph - N/A   Overcast
10:53 PM 24.1 °F 13.7 °F 12.0 °F 60% 30.01 in 10.0 mi West 10.4 mph - N/A   Partly Cloudy
11:53 PM 19.0 °F 7.5 °F 10.0 °F 68% 30.01 in 10.0 mi West 10.4 mph - N/A   Scattered Clouds